• Em Portugal
  • Lista de países
  • Para 7 dias
  • Temperatura da água
  • Mapas de satélite
  • Mapa do tempo
  • Widgets de tempo
  • user-avatar
    Iniciar Sessão

    Previsão horária em Corcha

    Hoje, 11 Dezembro, Segunda-feira

    Tempo Temperatura Precipitação Vento Pressão Humidade
    00:00 -3°C° 0 mm 2 m/s 667 mmHg 84%
    01:00 -4°C° 0 mm 3 m/s 666 mmHg 81%
    02:00 -3°C° 0 mm 2 m/s 666 mmHg 80%
    03:00 -3°C° 0 mm 2 m/s 666 mmHg 78%
    04:00 -3°C° 0 mm 2 m/s 667 mmHg 76%
    05:00 -3°C° 0 mm 2 m/s 667 mmHg 77%
    06:00 -3°C° 0 mm 2 m/s 667 mmHg 77%
    07:00 -3°C° 0 mm 2 m/s 667 mmHg 78%
    08:00 -1°C° 0 mm 3 m/s 667 mmHg 76%
    09:00 +1°C° 0 mm 3 m/s 668 mmHg 74%
    10:00 +3°C° 0 mm 3 m/s 668 mmHg 72%
    11:00 +4°C° 0 mm 3 m/s 668 mmHg 72%
    12:00 +5°C° 0 mm 4 m/s 668 mmHg 72%
    13:00 +5°C° 0 mm 4 m/s 668 mmHg 72%
    14:00 +4°C° 0 mm 4 m/s 668 mmHg 78%
    15:00 +3°C° 0 mm 3 m/s 668 mmHg 83%
    16:00 +2°C° 0 mm 3 m/s 668 mmHg 88%
    17:00 +2°C° 0 mm 3 m/s 668 mmHg 89%
    18:00 +1°C° 0 mm 3 m/s 668 mmHg 90%
    19:00 +1°C° 0 mm 3 m/s 668 mmHg 91%
    20:00 +1°C° 0 mm 3 m/s 668 mmHg 90%
    21:00 +1°C° 0 mm 3 m/s 668 mmHg 89%
    22:00 +1°C° 0 mm 3 m/s 668 mmHg 89%
    23:00 +1°C° 0 mm 3 m/s 668 mmHg 89%

    Amanhã, 12 Dezembro, Terça-feira

    Tempo Temperatura Precipitação Vento Pressão Humidade
    00:00 +1°C° 0 mm 3 m/s 668 mmHg 89%
    01:00 +1°C° 0 mm 3 m/s 668 mmHg 89%
    02:00 +1°C° 0 mm 3 m/s 668 mmHg 90%
    03:00 +2°C° 0 mm 3 m/s 668 mmHg 90%
    04:00 +2°C° 0 mm 3 m/s 668 mmHg 91%
    05:00 +2°C° 0,1 mm 3 m/s 669 mmHg 92%
    06:00 +3°C° 0,1 mm 3 m/s 669 mmHg 92%
    07:00 +3°C° 0,1 mm 3 m/s 669 mmHg 93%
    08:00 +4°C° 0,1 mm 3 m/s 669 mmHg 91%
    09:00 +5°C° 0,1 mm 3 m/s 670 mmHg 90%
    10:00 +5°C° 0,1 mm 3 m/s 670 mmHg 89%
    11:00 +7°C° 0 mm 3 m/s 670 mmHg 88%
    12:00 +8°C° 0 mm 3 m/s 670 mmHg 86%
    13:00 +8°C° 0 mm 3 m/s 670 mmHg 85%
    14:00 +8°C° 0 mm 3 m/s 670 mmHg 87%
    15:00 +7°C° 0 mm 2 m/s 670 mmHg 89%
    16:00 +6°C° 0 mm 2 m/s 669 mmHg 91%
    17:00 +6°C° 0 mm 2 m/s 670 mmHg 92%
    18:00 +5°C° 0 mm 2 m/s 670 mmHg 93%
    19:00 +4°C° 0 mm 2 m/s 670 mmHg 93%
    20:00 +4°C° 0 mm 2 m/s 670 mmHg 93%
    21:00 +4°C° 0 mm 2 m/s 670 mmHg 93%
    22:00 +4°C° 0 mm 2 m/s 670 mmHg 92%
    23:00 +4°C° 0 mm 2 m/s 670 mmHg 92%

    Depois de amanhã, 13 Dezembro, Quarta-feira

    Tempo Temperatura Precipitação Vento Pressão Humidade
    00:00 +4°C° 0 mm 2 m/s 670 mmHg 92%
    01:00 +4°C° 0 mm 2 m/s 670 mmHg 92%
    02:00 +3°C° 0 mm 2 m/s 670 mmHg 93%
    03:00 +3°C° 0 mm 2 m/s 670 mmHg 93%
    04:00 +3°C° 0 mm 2 m/s 669 mmHg 93%
    05:00 +3°C° 0 mm 2 m/s 669 mmHg 93%
    06:00 +3°C° 0 mm 2 m/s 670 mmHg 93%
    07:00 +3°C° 0 mm 2 m/s 670 mmHg 94%
    08:00 +4°C° 0 mm 2 m/s 670 mmHg 90%
    09:00 +5°C° 0 mm 3 m/s 670 mmHg 87%
    10:00 +7°C° 0 mm 3 m/s 671 mmHg 84%
    11:00 +8°C° 0 mm 3 m/s 670 mmHg 80%
    12:00 +9°C° 0 mm 3 m/s 670 mmHg 76%
    13:00 +9°C° 0 mm 3 m/s 670 mmHg 73%
    14:00 +8°C° 0 mm 3 m/s 669 mmHg 78%
    15:00 +7°C° 0 mm 2 m/s 669 mmHg 82%
    16:00 +7°C° 0 mm 2 m/s 668 mmHg 87%
    17:00 +6°C° 0 mm 2 m/s 668 mmHg 89%
    18:00 +6°C° 0 mm 2 m/s 668 mmHg 91%
    19:00 +4°C° 0 mm 3 m/s 668 mmHg 93%
    20:00 +4°C° 0,2 mm 3 m/s 668 mmHg 93%
    21:00 +4°C° 0,2 mm 3 m/s 668 mmHg 94%
    22:00 +4°C° 0,2 mm 3 m/s 668 mmHg 94%
    23:00 +5°C° 0,9 mm 2 m/s 668 mmHg 95%

    14 Dezembro, Quinta-feira

    Tempo Temperatura Precipitação Vento Pressão Humidade
    00:00 +5°C° 0,9 mm 2 m/s 667 mmHg 95%
    01:00 +5°C° 0,9 mm 2 m/s 667 mmHg 96%
    02:00 +5°C° 0,6 mm 2 m/s 667 mmHg 96%
    03:00 +5°C° 0,6 mm 2 m/s 667 mmHg 96%
    04:00 +5°C° 0,6 mm 2 m/s 667 mmHg 95%
    05:00 +4°C° 0 mm 2 m/s 667 mmHg 94%
    06:00 +4°C° 0 mm 2 m/s 667 mmHg 93%
    07:00 +3°C° 0 mm 2 m/s 667 mmHg 92%
    08:00 +4°C° 0 mm 2 m/s 667 mmHg 86%
    09:00 +5°C° 0 mm 2 m/s 668 mmHg 81%
    10:00 +5°C° 0 mm 2 m/s 668 mmHg 75%
    11:00 +5°C° 0 mm 2 m/s 668 mmHg 71%
    12:00 +6°C° 0 mm 2 m/s 667 mmHg 67%
    13:00 +6°C° 0 mm 2 m/s 667 mmHg 62%
    14:00 +6°C° 0 mm 2 m/s 667 mmHg 67%
    15:00 +5°C° 0 mm 2 m/s 667 mmHg 72%
    16:00 +5°C° 0 mm 1 m/s 667 mmHg 77%
    17:00 +4°C° 0 mm 1 m/s 667 mmHg 80%
    18:00 +4°C° 0 mm 1 m/s 667 mmHg 83%
    19:00 +3°C° 0 mm 1 m/s 667 mmHg 86%
    20:00 +3°C° 0 mm 1 m/s 667 mmHg 86%
    21:00 +3°C° 0 mm 1 m/s 667 mmHg 87%
    22:00 +1°C° 0 mm 2 m/s 667 mmHg 87%
    23:00 +1°C° 0 mm 2 m/s 667 mmHg 86%

    15 Dezembro, Sexta-feira

    Tempo Temperatura Precipitação Vento Pressão Humidade
    00:00 +1°C° 0 mm 2 m/s 666 mmHg 85%
    01:00 +1°C° 0 mm 2 m/s 666 mmHg 84%
    02:00 +1°C° 0 mm 2 m/s 666 mmHg 83%
    03:00 +1°C° 0 mm 2 m/s 666 mmHg 82%
    04:00 +1°C° 0 mm 2 m/s 665 mmHg 81%
    05:00 +1°C° 0 mm 2 m/s 665 mmHg 83%
    06:00 +1°C° 0 mm 2 m/s 665 mmHg 84%
    07:00 +1°C° 0 mm 2 m/s 665 mmHg 85%
    08:00 +2°C° 0 mm 3 m/s 666 mmHg 82%
    09:00 +4°C° 0 mm 3 m/s 666 mmHg 79%
    10:00 +5°C° 0 mm 3 m/s 666 mmHg 76%
    11:00 +7°C° 0 mm 3 m/s 666 mmHg 75%
    12:00 +8°C° 0 mm 3 m/s 666 mmHg 74%
    13:00 +7°C° 0 mm 4 m/s 665 mmHg 73%
    14:00 +7°C° 0 mm 4 m/s 665 mmHg 78%
    15:00 +6°C° 0 mm 4 m/s 665 mmHg 83%
    16:00 +5°C° 0 mm 4 m/s 664 mmHg 89%
    17:00 +4°C° 0,1 mm 4 m/s 664 mmHg 90%
    18:00 +4°C° 0,1 mm 4 m/s 664 mmHg 91%
    19:00 +4°C° 0,1 mm 4 m/s 664 mmHg 92%
    20:00 +4°C° 0 mm 4 m/s 664 mmHg 92%
    21:00 +4°C° 0 mm 4 m/s 664 mmHg 92%
    22:00 +4°C° 0 mm 4 m/s 664 mmHg 93%
    23:00 +4°C° 0,1 mm 4 m/s 664 mmHg 93%

    16 Dezembro, Sábado

    Tempo Temperatura Precipitação Vento Pressão Humidade
    00:00 +4°C° 0,1 mm 4 m/s 664 mmHg 93%
    01:00 +4°C° 0,1 mm 4 m/s 664 mmHg 93%
    02:00 +4°C° 0,1 mm 4 m/s 663 mmHg 93%
    03:00 +4°C° 0,1 mm 4 m/s 663 mmHg 93%
    04:00 +4°C° 0,1 mm 4 m/s 663 mmHg 93%
    05:00 +4°C° 0,1 mm 4 m/s 663 mmHg 93%
    06:00 +4°C° 0,1 mm 4 m/s 663 mmHg 93%
    07:00 +4°C° 0,1 mm 4 m/s 663 mmHg 93%
    08:00 +5°C° 0,1 mm 4 m/s 663 mmHg 91%
    09:00 +6°C° 0,1 mm 4 m/s 663 mmHg 88%
    10:00 +7°C° 0,1 mm 4 m/s 663 mmHg 86%
    11:00 +7°C° 0,1 mm 4 m/s 663 mmHg 84%
    12:00 +7°C° 0,1 mm 4 m/s 663 mmHg 83%
    13:00 +8°C° 0,1 mm 4 m/s 663 mmHg 81%
    14:00 +7°C° 0,2 mm 4 m/s 662 mmHg 83%
    15:00 +6°C° 0,2 mm 4 m/s 662 mmHg 85%
    16:00 +7°C° 0,2 mm 3 m/s 661 mmHg 88%
    17:00 +7°C° 0,6 mm 3 m/s 661 mmHg 89%
    18:00 +5°C° 0,6 mm 3 m/s 661 mmHg 91%
    19:00 +5°C° 0,6 mm 3 m/s 661 mmHg 92%
    20:00 +5°C° 1,3 mm 3 m/s 661 mmHg 93%
    21:00 +5°C° 1,3 mm 3 m/s 660 mmHg 93%
    22:00 +5°C° 1,3 mm 3 m/s 660 mmHg 94%
    23:00 +5°C° 1,6 mm 3 m/s 660 mmHg 94%
    Mostrar mais